Content
SEND FEEDBACK

Daily
Averages
Monthly
Summary
United Kingdom

LONDON, ENGLAND


Home > Europe > United Kingdom > England
Elevation: 203 feet     Latitude: 51 09N     Longitude: 000 11W

WEATHER
 
SELECT A DAY
Number of Records: 294,628;   Date Range: 7/1/96 - 9/20/14
 
SHARE

PRINT THIS DATA

[ ← Previous Day ]
WEATHER ALMANAC - JULY 16, 2013
[ Next Day → ]
[ °C ]   °F
Weather ElementAverageHighLow
Temperature70.5 °F84.2 °F (2:20 pm)55.4 °F (4:50 am)
Dewpoint57.2 °F60.8 °F (3:50 pm)55.4 °F (2:20 am)
Humidity66 %100 % (4:50 am)39 % (1:50 pm)
Barometer30.21 in30.24 in (8:20 am)30.18 in (4:20 pm)
Wind Speed4 mph9.2 mph (4:20 pm)
Weather ElementAverage
Wind DirectionESE (99.8 °)

Weather ElementTotal
Precipitation---
Cooling Degree Days4.8 (Base 65)
Growing Degree Days19.8 (Base 50)
Averaged from 47 records on July 16, 2013
WEATHER CONDITIONS BREAKOUT
WIND DIRECTION BREAKOUT
WEATHER BY HOUR - JULY 16, 2013
[ °C ]   °F
Local TimeTemperatureDewpointHumidityBarometerVisibilityWind DirectionWind SpeedGust SpeedPrecipitationEventsConditions
12:50 AM62.6 °F57.2 °F82 %30.21 inVariable2.3 mphClear
1:20 AM60.8 °F57.2 °F88 %30.21 inEast (90°)2.3 mphClear
1:50 AM59.0 °F57.2 °F94 %30.21 inEast (80°)2.3 mphClear
2:20 AM59.0 °F55.4 °F88 %30.21 inENE (70°)3.5 mphClear
2:50 AM59.0 °F55.4 °F88 %30.21 inEast (90°)3.5 mphClear
3:20 AM59.0 °F55.4 °F88 %30.21 inENE (70°)3.5 mphClear
3:50 AM57.2 °F55.4 °F94 %30.21 inEast (90°)3.5 mphClear
4:20 AM57.2 °F55.4 °F94 %30.21 inCalmClear
4:50 AM55.4 °F55.4 °F100 %30.21 inVariable2.3 mphClear
5:20 AM55.4 °F55.4 °F100 %30.21 inCalmClear
5:50 AM55.4 °F55.4 °F100 %30.21 inCalmClear
6:20 AM59.0 °F55.4 °F88 %30.21 inVariable3.5 mphClear
6:50 AM59.0 °F57.2 °F94 %30.21 inEast (80°)3.5 mphClear
7:20 AM60.8 °F57.2 °F88 %30.21 inCalmClear
7:50 AM62.6 °F57.2 °F82 %30.21 inCalmClear
8:20 AM64.4 °F57.2 °F77 %30.24 inVariable2.3 mphClear
8:50 AM66.2 °F57.2 °F73 %30.24 inVariable2.3 mphClear
9:20 AM68.0 °F59.0 °F73 %30.24 inVariable3.5 mphClear
9:50 AM71.6 °F59.0 °F64 %30.24 inVariable2.3 mphClear
10:20 AM73.4 °F59.0 °F61 %30.24 inVariable3.5 mphClear
10:50 AM77.0 °F59.0 °F54 %30.24 inVariable3.5 mphClear
11:20 AM78.8 °F59.0 °F51 %30.24 inVariable2.3 mphClear
11:50 AM78.8 °F59.0 °F51 %30.21 inVariable2.3 mphClear
12:20 PM80.6 °F57.2 °F45 %30.21 inNorth (350°)4.6 mphClear
12:50 PM82.4 °F59.0 °F45 %30.21 inSW (220°)4.6 mphClear
1:20 PM82.4 °F57.2 °F42 %30.21 inVariable3.5 mphClear
1:50 PM82.4 °F55.4 °F39 %30.21 inWSW (240°)4.6 mphClear
2:20 PM84.2 °F57.2 °F40 %30.21 inVariable4.6 mphClear
2:50 PM84.2 °F57.2 °F40 %30.21 inVariable2.3 mphClear
3:20 PM84.2 °F57.2 °F40 %30.21 inVariable4.6 mphClear
3:50 PM82.4 °F60.8 °F48 %30.21 inWSW (240°)6.9 mphClear
4:20 PM82.4 °F60.8 °F48 %30.18 inWSW (240°)9.2 mphClear
4:50 PM82.4 °F59.0 °F45 %30.18 inSW (230°)9.2 mphClear
5:20 PM80.6 °F57.2 °F45 %30.18 inSouth (190°)8.1 mphClear
5:50 PM80.6 °F55.4 °F42 %30.18 inSW (220°)8.1 mphClear
6:20 PM78.8 °F57.2 °F47 %30.18 inSSW (210°)5.8 mphClear
6:50 PM78.8 °F57.2 °F47 %30.18 inSSW (200°)6.9 mphClear
7:20 PM77.0 °F59.0 °F54 %30.18 inSSW (210°)6.9 mphClear
7:50 PM77.0 °F59.0 °F54 %30.18 inSouth (190°)6.9 mphClear
8:20 PM75.2 °F59.0 °F57 %30.18 inSouth (170°)5.8 mphClear
8:50 PM73.4 °F57.2 °F57 %30.21 inSSE (160°)5.8 mphClear
9:20 PM71.6 °F57.2 °F60 %30.21 inSouth (180°)5.8 mphClear
9:50 PM69.8 °F55.4 °F60 %30.21 inSouth (170°)4.6 mphClear
10:20 PM69.8 °F55.4 °F60 %30.21 inSouth (180°)4.6 mphClear
10:50 PM68.0 °F55.4 °F64 %30.21 inSouth (180°)3.5 mphClear
11:20 PM64.4 °F55.4 °F73 %30.24 inSouth (170°)3.5 mphClear
11:50 PM62.6 °F55.4 °F77 %30.24 inSouth (170°)4.6 mphClear
Hourly data recorded from EGKK, located miles away from London, England







STORIES FROM OUR PARTNERS